Weather History for KCLK - November, 2013

Change the Weather History Date:

Sunday, November 3, 2013

  Actual Average (KCSM) Record (KCSM)
Temperature  
Mean Temperature 52 °F -  
Max Temperature 66 °F 61 °F 91 °F (2005)
Min Temperature 39 °F 42 °F 30 °F (2011)
Degree Days  
Heating Degree Days 12    
Growing Degree Days 2 (Base 50)    
Moisture  
Dew Point 32 °F    
Average Humidity 50    
Maximum Humidity 75    
Minimum Humidity 24    
Precipitation  
Precipitation 0.00 in - - ()
Sea Level Pressure  
Sea Level Pressure 30.00 in    
Wind  
Wind Speed 15 mph (SSE)    
Max Wind Speed 31 mph    
Max Gust Speed 40 mph    
Visibility 10 miles    
Events      
Averages and records for this station are not official NWS values.
T = Trace of Precipitation, MM = Missing Value Source: NWS Daily Summary

Daily Weather History Graph

Daily Weather History Graph

Search for Another Location

Airport or City:

Trip Planner

Search our weather history database for the weather conditions in past years. The results will help you decide how hot, cold, wet, or windy it might be!

Date:

Astronomy

Nov. 03, 2013 Rise Set
Actual Time 6:59 AM CST 5:38 PM CST
Civil Twilight 6:33 AM CST 6:04 PM CST
Nautical Twilight 6:03 AM CST 6:35 PM CST
Astronomical Twilight 5:33 AM CST 7:04 PM CST
Moon 7:04 AM CST (11/3) 5:55 PM CST (11/3)
Length of Visible Light 11h 31m
Length of Day
10h 38m
New Moon, 0% of the Moon is Illuminated
Nov 3
New Moon
Nov 9
First Quarter
Nov 17
Full
Nov 25
Last Quarter
Dec 2
New

Hourly Weather History & Observations

Time (CST) Temp. Windchill Dew Point Humidity Pressure Visibility Wind Dir Wind Speed Gust Speed Precip Events Conditions
12:15 AM 42.8 °F 38.0 °F 32.0 °F 66% 30.16 in 10.0 mi SSE 8.1 mph - N/A   Clear
12:35 AM 42.8 °F 37.5 °F 32.0 °F 66% 30.16 in 10.0 mi SSE 9.2 mph - N/A   Clear
12:55 AM 44.6 °F 38.8 °F 32.0 °F 61% 30.15 in 10.0 mi SSE 11.5 mph - N/A   Clear
1:15 AM 44.6 °F 38.8 °F 32.0 °F 61% 30.14 in 10.0 mi SSE 11.5 mph - N/A   Clear
1:35 AM 44.6 °F 38.8 °F 32.0 °F 61% 30.14 in 10.0 mi SSE 11.5 mph - N/A   Clear
1:55 AM 44.6 °F 38.8 °F 32.0 °F 61% 30.13 in 10.0 mi SSE 11.5 mph - N/A   Clear
1:15 AM 44.6 °F 38.4 °F 32.0 °F 61% 30.13 in 10.0 mi SSE 12.7 mph - N/A   Clear
1:35 AM 42.8 °F 36.6 °F 32.0 °F 66% 30.13 in 10.0 mi SSE 11.5 mph - N/A   Clear
1:55 AM 42.8 °F 36.6 °F 32.0 °F 66% 30.13 in 10.0 mi SSE 11.5 mph - N/A   Clear
2:15 AM 42.8 °F 37.0 °F 32.0 °F 66% 30.13 in 10.0 mi SSE 10.4 mph - N/A   Clear
2:35 AM 42.8 °F 37.0 °F 32.0 °F 66% 30.13 in 10.0 mi SSE 10.4 mph - N/A   Clear
2:55 AM 41.0 °F 34.7 °F 32.0 °F 70% 30.12 in 10.0 mi SSE 10.4 mph - N/A   Clear
3:15 AM 41.0 °F 34.3 °F 32.0 °F 70% 30.11 in 10.0 mi SSE 11.5 mph - N/A   Clear
3:35 AM 41.0 °F 34.3 °F 32.0 °F 70% 30.11 in 10.0 mi SSE 11.5 mph - N/A   Clear
3:55 AM 41.0 °F 34.3 °F 32.0 °F 70% 30.11 in 10.0 mi South 11.5 mph - N/A   Clear
4:15 AM 41.0 °F 34.7 °F 32.0 °F 70% 30.10 in 10.0 mi SSE 10.4 mph - N/A   Clear
4:35 AM 41.0 °F 34.7 °F 32.0 °F 70% 30.10 in 10.0 mi SSE 10.4 mph - N/A   Clear
4:55 AM 41.0 °F 35.2 °F 32.0 °F 70% 30.09 in 10.0 mi SSE 9.2 mph - N/A   Clear
5:15 AM 39.2 °F 33.0 °F 32.0 °F 75% 30.09 in 10.0 mi SSE 9.2 mph - N/A   Clear
5:35 AM 41.0 °F 34.7 °F 32.0 °F 70% 30.09 in 10.0 mi SSE 10.4 mph - N/A   Clear
5:55 AM 41.0 °F 35.2 °F 32.0 °F 70% 30.09 in 10.0 mi SSE 9.2 mph - N/A   Clear
6:15 AM 41.0 °F 35.8 °F 32.0 °F 70% 30.09 in 10.0 mi South 8.1 mph - N/A   Clear
6:35 AM 41.0 °F 34.7 °F 32.0 °F 70% 30.08 in 10.0 mi South 10.4 mph - N/A   Clear
6:55 AM 42.8 °F 36.6 °F 32.0 °F 66% 30.07 in 10.0 mi South 11.5 mph - N/A   Clear
7:15 AM 42.8 °F 37.0 °F 32.0 °F 66% 30.08 in 10.0 mi South 10.4 mph - N/A   Clear
7:35 AM 42.8 °F 35.8 °F 32.0 °F 66% 30.07 in 10.0 mi SSE 13.8 mph - N/A   Clear
7:55 AM 42.8 °F 36.2 °F 32.0 °F 66% 30.06 in 10.0 mi SSE 12.7 mph - N/A   Clear
8:15 AM 42.8 °F 35.8 °F 32.0 °F 66% 30.07 in 10.0 mi SSE 13.8 mph - N/A   Clear
8:35 AM 44.6 °F 38.8 °F 32.0 °F 61% 30.07 in 10.0 mi South 11.5 mph - N/A   Clear
8:55 AM 46.4 °F 41.1 °F 32.0 °F 57% 30.08 in 10.0 mi SSE 11.5 mph - N/A   Clear
9:15 AM 50.0 °F - 32.0 °F 50% 30.08 in 10.0 mi South 18.4 mph 21.9 mph N/A   Clear
9:35 AM 50.0 °F - 32.0 °F 50% 30.07 in 10.0 mi South 16.1 mph 23.0 mph N/A   Clear
9:55 AM 51.8 °F - 32.0 °F 47% 30.06 in 10.0 mi South 17.3 mph 29.9 mph N/A   Clear
10:15 AM 53.6 °F - 32.0 °F 44% 30.06 in 10.0 mi South 27.6 mph 33.4 mph N/A   Clear
10:35 AM 53.6 °F - 32.0 °F 44% 30.05 in 10.0 mi South 23.0 mph 34.5 mph N/A   Clear
10:55 AM 53.6 °F - 32.0 °F 44% 30.04 in 10.0 mi South 23.0 mph 31.1 mph N/A   Clear
11:15 AM 57.2 °F - 32.0 °F 38% 30.04 in 10.0 mi South 25.3 mph 32.2 mph N/A   Clear
11:35 AM 59.0 °F - 32.0 °F 36% 30.02 in 10.0 mi South 25.3 mph 32.2 mph N/A   Clear
11:55 AM 59.0 °F - 32.0 °F 36% 30.02 in 10.0 mi South 29.9 mph 38.0 mph N/A   Clear
12:15 PM 59.0 °F - 32.0 °F 36% 30.01 in 10.0 mi South 25.3 mph 35.7 mph N/A   Clear
12:35 PM 60.8 °F - 30.2 °F 31% 29.98 in 10.0 mi South 26.5 mph 36.8 mph N/A   Clear
12:55 PM 60.8 °F - 30.2 °F 31% 29.96 in 10.0 mi South 25.3 mph 34.5 mph N/A   Clear
1:15 PM 60.8 °F - 30.2 °F 31% 29.95 in 10.0 mi South 24.2 mph 34.5 mph N/A   Clear
1:35 PM 62.6 °F - 30.2 °F 30% 29.94 in 10.0 mi South 23.0 mph 28.8 mph N/A   Clear
1:55 PM 64.4 °F - 30.2 °F 28% 29.92 in 10.0 mi South 21.9 mph 33.4 mph N/A   Clear
2:15 PM 64.4 °F - 30.2 °F 28% 29.90 in 10.0 mi South 27.6 mph 39.1 mph N/A   Clear
2:35 PM 64.4 °F - 28.4 °F 26% 29.89 in 10.0 mi South 29.9 mph 39.1 mph N/A   Clear
2:55 PM 66.2 °F - 28.4 °F 24% 29.88 in 10.0 mi South 31.1 mph 40.3 mph N/A   Clear
3:15 PM 64.4 °F - 28.4 °F 26% 29.90 in 10.0 mi South 29.9 mph 38.0 mph N/A   Clear
3:35 PM 62.6 °F - 30.2 °F 30% 29.90 in 10.0 mi South 25.3 mph 28.8 mph N/A   Clear
3:55 PM 64.4 °F - 30.2 °F 28% 29.88 in 10.0 mi South 28.8 mph 35.7 mph N/A   Clear
4:15 PM 62.6 °F - 30.2 °F 30% 29.87 in 10.0 mi SSE 27.6 mph 35.7 mph N/A   Clear
4:35 PM 62.6 °F - 28.4 °F 27% 29.86 in 10.0 mi South 27.6 mph 38.0 mph N/A   Clear
4:55 PM 60.8 °F - 30.2 °F 31% 29.88 in 10.0 mi South 21.9 mph 29.9 mph N/A   Clear
5:15 PM 59.0 °F - 32.0 °F 36% 29.88 in 10.0 mi South 19.6 mph 27.6 mph N/A   Clear
5:35 PM 59.0 °F - 32.0 °F 36% 29.88 in 10.0 mi South 19.6 mph 25.3 mph N/A   Clear
5:55 PM 59.0 °F - 32.0 °F 36% 29.88 in 10.0 mi SSE 16.1 mph 20.7 mph N/A   Clear
6:15 PM 59.0 °F - 32.0 °F 36% 29.88 in 10.0 mi SSE 18.4 mph 25.3 mph N/A   Scattered Clouds
6:35 PM 59.0 °F - 32.0 °F 36% 29.88 in 10.0 mi South 24.2 mph 28.8 mph N/A   Scattered Clouds
6:55 PM 57.2 °F - 32.0 °F 38% 29.89 in 10.0 mi SSE 17.3 mph 28.8 mph N/A   Clear
7:15 PM 57.2 °F - 32.0 °F 38% 29.89 in 10.0 mi SSE 23.0 mph 28.8 mph N/A   Scattered Clouds
7:35 PM 57.2 °F - 32.0 °F 38% 29.90 in 10.0 mi SSE 19.6 mph 26.5 mph N/A   Scattered Clouds
7:55 PM 55.4 °F - 32.0 °F 41% 29.90 in 10.0 mi SSE 17.3 mph 25.3 mph N/A   Clear
8:15 PM 55.4 °F - 33.8 °F 44% 29.89 in 10.0 mi SSE 21.9 mph 28.8 mph N/A   Scattered Clouds
8:35 PM 55.4 °F - 33.8 °F 44% 29.88 in 10.0 mi SSE 21.9 mph 27.6 mph N/A   Mostly Cloudy
8:55 PM 55.4 °F - 35.6 °F 47% 29.89 in 10.0 mi SSE 23.0 mph 29.9 mph N/A   Overcast
9:15 PM 55.4 °F - 35.6 °F 47% 29.89 in 10.0 mi SSE 21.9 mph 27.6 mph N/A   Overcast
9:35 PM 53.6 °F - 35.6 °F 51% 29.88 in 10.0 mi SSE 19.6 mph 31.1 mph N/A   Scattered Clouds
9:55 PM 53.6 °F - 35.6 °F 51% 29.89 in 10.0 mi SSE 19.6 mph 26.5 mph N/A   Clear
10:15 PM 53.6 °F - 35.6 °F 51% 29.88 in 10.0 mi SSE 16.1 mph - N/A   Clear
10:35 PM 53.6 °F - 35.6 °F 51% 29.88 in 10.0 mi SSE 16.1 mph 26.5 mph N/A   Scattered Clouds
10:55 PM 55.4 °F - 35.6 °F 47% 29.88 in 10.0 mi South 23.0 mph 28.8 mph N/A   Scattered Clouds